Location: Belfast
(54.5830°N, 5.9330°W)
Time: 12:03:48
(UTC+01:00)

ISS - Pass Details

Date: 27 February 2024
Orbit: 411 x 418 km, 51.6° (Epoch: 23 April)

Event Time Altitude Azimuth Distance (km) Brightness Sun altitude
Exits shadow 05:16:00 48° 206° (SSW) 593 -3.3 -18.6°
Maximum altitude 05:16:27 52° 176° (S) 560 -3.3 -18.5°
Drops below altitude 10° 05:19:53 10° 99° (E) 1,561 0.2 -18.0°
Enters shadow 06:13:11 -74° 283° (WNW) 12,678 3.6 -10.3°
